CW0214 Weather Reports


time (UTC)temp
C
wind
direction
speed
KPH
gust
KPH
rain 1hr
cm
rain 24hr
cm
rain mn
cm
humidity
%
barometer
mb
20260505035905 10 30 0.0 0.0 0.00 0.03 0.00 90 1017.4
20260505034905 10 30 0.0 0.0 0.00 0.03 0.00 90 1017.4
20260505033905 10 30 0.0 0.0 0.00 0.03 0.00 89 1017.4
20260505033405 10 30 0.0 0.0 0.00 0.03 0.00 89 1017.4
20260505032405 10 30 3.2 8.0 0.00 0.03 0.00 89 1017.4
20260505031904 10 30 3.2 8.0 0.00 0.03 0.00 89 1017.4
20260505031405 10 30 0.0 3.2 0.00 0.03 0.00 89 1017.4
20260505030905 10 30 3.2 8.0 0.00 0.03 0.00 89 1017.5
20260505030405 10 30 1.6 8.0 0.00 0.03 0.00 88 1017.5
20260505025905 10 28 3.2 8.0 0.00 0.03 0.00 88 1017.5
20260505025404 10 28 3.2 8.0 0.00 0.03 0.00 88 1017.5
20260505024404 10 28 1.6 8.0 0.00 0.03 0.00 87 1017.6
20260505023905 11 117 1.6 8.0 0.00 0.03 0.00 87 1017.5
20260505023404 11 117 1.6 8.0 0.00 0.03 0.00 87 1017.6
20260505022904 11 117 0.0 8.0 0.00 0.03 0.00 87 1017.5
20260505022405 11 117 3.2 8.0 0.00 0.03 0.00 87 1017.5
20260505021906 11 117 0.0 8.0 0.00 0.03 0.00 87 1017.5
20260505021405 11 117 3.2 9.7 0.00 0.03 0.00 87 1017.5
20260505020906 11 117 1.6 9.7 0.00 0.03 0.00 87 1017.5
20260505020405 11 117 0.0 4.8 0.00 0.03 0.00 87 1017.5
20260505015904 10 117 1.6 4.8 0.00 0.03 0.00 87 1017.6
20260505015404 11 117 3.2 8.0 0.00 0.03 0.00 87 1017.6
20260505014904 11 117 3.2 4.8 0.00 0.03 0.00 86 1017.6
20260505014405 11 117 0.0 4.8 0.00 0.03 0.00 86 1017.6
20260505013904 11 117 0.0 9.7 0.00 0.03 0.00 86 1017.7
20260505013404 11 117 0.0 11.3 0.00 0.03 0.00 86 1017.8
20260505012904 11 121 0.0 4.8 0.00 0.03 0.00 86 1017.8
20260505012404 11 121 1.6 4.8 0.00 0.03 0.00 86 1017.8
20260505011904 11 116 1.6 9.7 0.00 0.03 0.00 86 1018.0
20260505010905 11 69 0.0 3.2 0.00 0.03 0.00 86 1018.1
20260505010405 11 69 1.6 4.8 0.00 0.03 0.00 86 1018.1
20260505005905 11 69 1.6 8.0 0.00 0.03 0.00 85 1018.2
20260505005405 11 69 1.6 8.0 0.00 0.03 0.00 85 1018.3
20260505004905 11 69 0.0 1.6 0.00 0.03 0.00 84 1018.4
20260505004405 11 69 0.0 3.2 0.00 0.03 0.00 84 1018.4
20260505002904 11 146 0.0 4.8 0.00 0.03 0.00 84 1018.4
20260505002404 11 167 0.0 3.2 0.00 0.03 0.00 84 1018.4
20260505001904 11 81 0.0 8.0 0.00 0.03 0.00 84 1018.4
20260505001405 11 48 3.2 8.0 0.00 0.03 0.00 84 1018.6
20260505000904 11 48 3.2 8.0 0.00 0.03 0.00 83 1018.6
20260505000405 11 48 0.0 8.0 0.00 0.03 0.00 83 1018.6
20260504235405 11 86 1.6 8.0 0.00 0.03 0.00 83 1018.7
20260504234904 12 86 1.6 4.8 0.00 0.03 0.00 82 1018.7
20260504234404 12 92 3.2 8.0 0.00 0.03 0.00 82 1018.6
20260504233905 12 86 1.6 8.0 0.00 0.03 0.00 82 1018.7
20260504233405 12 83 1.6 4.8 0.00 0.03 0.00 81 1018.7
20260504232905 12 159 0.0 8.0 0.00 0.03 0.00 81 1018.7
20260504231905 12 96 1.6 8.0 0.00 0.03 0.00 80 1018.6
20260504231404 12 103 1.6 8.0 0.00 0.03 0.00 80 1018.7
20260504230906 12 124 4.8 12.9 0.00 0.03 0.00 80 1018.7
20260504230405 12 161 4.8 12.9 0.00 0.03 0.00 79 1018.7
20260504225405 12 139 3.2 14.5 0.00 0.03 0.03 79 1018.7
20260504224404 12 209 0.0 8.0 0.00 0.03 0.03 79 1018.7
20260504223904 12 148 0.0 9.7 0.00 0.03 0.03 79 1018.7
20260504223405 12 138 1.6 11.3 0.00 0.03 0.03 79 1018.7
20260504222904 12 46 4.8 14.5 0.00 0.03 0.03 78 1018.7
20260504222404 12 144 6.4 12.9 0.00 0.03 0.03 78 1018.8
20260504221904 12 138 4.8 11.3 0.00 0.03 0.03 78 1018.7
20260504221406 12 148 1.6 8.0 0.00 0.03 0.03 78 1018.8
20260504220405 12 94 0.0 3.2 0.00 0.03 0.03 77 1018.7
20260504215907 12 100 1.6 11.3 0.00 0.03 0.03 77 1018.7
20260504215406 12 143 0.0 0.0 0.00 0.03 0.03 77 1018.7
20260504214904 12 143 0.0 9.7 0.00 0.03 0.03 76 1018.8
20260504213907 12 126 3.2 11.3 0.00 0.03 0.03 76 1018.8
20260504213405 13 112 1.6 8.0 0.00 0.03 0.03 76 1018.8
20260504212905 13 119 0.0 0.0 0.00 0.03 0.03 75 1018.8
20260504212405 13 119 0.0 0.0 0.00 0.03 0.03 75 1018.7
20260504211905 13 166 1.6 9.7 0.00 0.03 0.03 74 1018.7
20260504211404 13 128 4.8 16.1 0.00 0.03 0.03 74 1018.6
20260504210905 13 116 0.0 4.8 0.00 0.03 0.03 74 1018.6
20260504210405 13 90 0.0 4.8 0.00 0.03 0.03 73 1018.6
20260504205905 13 98 0.0 3.2 0.00 0.03 0.03 73 1018.5
20260504205406 13 108 0.0 8.0 0.00 0.03 0.03 72 1018.5
20260504204905 13 53 0.0 8.0 0.00 0.03 0.03 72 1018.5
20260504204404 13 83 1.6 14.5 0.00 0.03 0.03 72 1018.4
20260504203405 13 99 0.0 4.8 0.00 0.03 0.03 71 1018.1
20260504202904 14 68 0.0 4.8 0.00 0.03 0.03 70 1018.1
20260504202405 14 166 3.2 12.9 0.00 0.03 0.03 69 1018.0
20260504200905 14 312 0.0 12.9 0.00 0.03 0.03 66 1017.9
20260504200406 14 114 6.4 14.5 0.00 0.03 0.03 66 1017.8
20260504195904 15 93 0.0 9.7 0.00 0.03 0.03 66 1017.8
20260504195406 15 36 0.0 8.0 0.00 0.03 0.03 65 1017.7
20260504194904 15 100 3.2 11.3 0.00 0.03 0.03 64 1017.6
20260504194405 15 139 1.6 9.7 0.00 0.03 0.03 64 1017.6
20260504193905 15 155 0.0 1.6 0.00 0.03 0.03 64 1017.5
20260504193404 15 155 0.0 9.7 0.00 0.03 0.03 64 1017.4
20260504192905 15 113 1.6 12.9 0.00 0.03 0.03 64 1017.5
20260504192405 15 80 1.6 12.9 0.00 0.03 0.03 64 1017.4
20260504191906 15 109 3.2 9.7 0.00 0.03 0.03 63 1017.4
20260504190905 16 48 3.2 29.0 0.00 0.03 0.03 62 1017.2
20260504190405 16 102 3.2 20.9 0.00 0.03 0.03 61 1017.2
20260504185905 16 99 6.4 20.9 0.00 0.03 0.03 60 1017.1
20260504185405 16 159 4.8 19.3 0.00 0.03 0.03 59 1017.1
20260504184906 16 114 9.7 25.7 0.00 0.03 0.03 58 1017.1
20260504184405 16 117 4.8 16.1 0.00 0.03 0.03 58 1017.0
20260504183406 16 70 3.2 11.3 0.00 0.03 0.03 56 1017.0
20260504182905 17 129 3.2 14.5 0.00 0.03 0.03 56 1016.9
20260504182405 17 107 3.2 12.9 0.00 0.03 0.03 55 1016.9
20260504181906 17 71 4.8 16.1 0.00 0.03 0.03 54 1017.0
20260504181407 17 68 3.2 14.5 0.00 0.03 0.03 54 1017.0
20260504180905 17 67 6.4 19.3 0.00 0.03 0.03 53 1017.0
20260504180406 17 119 4.8 19.3 0.00 0.03 0.03 52 1016.9
20260504175906 17 148 9.7 24.1 0.00 0.03 0.03 52 1016.9
20260504175406 17 105 4.8 12.9 0.00 0.03 0.03 53 1016.9
20260504174906 17 92 1.6 19.3 0.00 0.03 0.03 53 1016.9
20260504174406 17 69 3.2 19.3 0.00 0.03 0.03 53 1016.9
20260504173906 17 75 3.2 16.1 0.00 0.03 0.03 52 1016.9
20260504173406 17 83 9.7 25.7 0.00 0.03 0.03 51 1017.0
20260504172906 18 111 6.4 19.3 0.00 0.03 0.03 51 1017.0
20260504172406 18 104 8.0 22.5 0.00 0.03 0.03 50 1016.9
20260504171906 18 85 3.2 20.9 0.00 0.03 0.03 50 1017.0
20260504171407 18 94 3.2 16.1 0.00 0.03 0.03 50 1017.0
20260504170907 18 95 8.0 19.3 0.00 0.05 0.03 49 1016.9
20260504170407 18 126 8.0 19.3 0.00 0.05 0.03 49 1016.8
20260504160407 20 116 3.2 12.9 0.00 0.23 0.03 49 1016.7
20260504150906 18 6 0.0 20.9 0.00 0.23 0.03 52 1016.8
20260504150406 18 87 3.2 19.3 0.00 0.23 0.03 53 1016.8
20260504140906 19 118 8.0 14.5 0.00 0.23 0.03 54 1017.1
20260504140405 20 10 3.2 12.9 0.00 0.23 0.03 53 1017.2
20260504130406 18 174 4.8 14.5 0.00 0.23 0.03 56 1017.3
20260504110405 18 96 0.0 11.3 0.00 0.23 0.03 56 1017.6
20260504081905 14 141 1.6 14.5 0.00 0.23 0.00 84 1017.3
20260504081405 14 140 3.2 9.7 0.00 0.23 0.00 84 1017.2
20260504080405 14 135 1.6 12.9 0.00 0.23 0.00 86 1017.1
20260504070404 12 80 0.0 0.0 0.00 0.23 0.00 93 1016.6
20260504050404 11 88 3.2 12.9 0.00 0.23 0.00 93 1015.8
20260504045904 11 118 3.2 11.3 0.00 0.23 0.00 93 1015.7
20260504045404 11 110 4.8 9.7 0.00 0.23 0.00 93 1015.7
20260504044904 11 94 3.2 9.7 0.00 0.23 0.00 93 1015.7
20260504044405 11 111 1.6 4.8 0.00 0.23 0.00 93 1015.7
20260504043905 11 115 1.6 4.8 0.00 0.23 0.00 93 1015.7
20260504043404 11 115 0.0 0.0 0.00 0.23 0.00 93 1015.8
20260504042905 11 115 0.0 0.0 0.00 0.23 0.00 93 1015.7
20260504042407 11 115 0.0 0.0 0.00 0.23 0.00 92 1015.7
20260504041405 11 113 0.0 4.8 0.00 0.23 0.00 92 1015.7
20260504040405 11 137 0.0 0.0 0.00 0.23 0.00 92 1015.7